Latest Weather Observations for Mallacoota

IDV60801

Issued at 10:35 am EDT Saturday 25 October 2014 (issued every 30 minutes, with the page automatically refreshed every 10 minutes)

About weather observations | Map of weather stations | Latest weather observations for VIC | Other Formats
Station Details ID: 084084 Name: MALLACOOTA Lat: -37.60 Lon: 149.73 Height: 22.0 m
Data from the previous 72 hours. | See also: Recent months at Mallacoota
Date/Time
EDT
Temp
°C
App
Temp
°C
Dew
Point
Rel
Hum
%
Delta-T
°C
Wind Press
QNH
hPa
Press
MSL
hPa
Rain
since 9 am
mm
Dir
 
Spd
km/h
Gust
km/h
Spd
kts
Gust
kts
25/10:30am 16.7 15.2 13.0 79 2.1 SW 13 20 7 11 1017.1 - 0.0
25/10:00am 16.7 15.2 13.2 80 2.0 SW 13 20 7 11 1016.8 - 0.0
25/09:30am 16.1 14.6 13.0 82 1.7 SW 13 20 7 11 1017.0 - 0.0
25/09:00am 16.1 14.9 12.8 81 1.8 SW 11 17 6 9 1017.0 1017.0 0.0
25/08:30am 15.9 15.1 12.8 82 1.7 SW 9 17 5 9 1016.9 - 0.0
25/08:00am 15.8 14.7 13.1 84 1.5 WSW 11 19 6 10 1016.8 - 0.0
25/07:30am 15.6 14.4 12.9 84 1.5 SW 11 20 6 11 1016.4 - 0.0
25/07:00am 15.6 14.0 12.9 84 1.5 SW 13 22 7 12 1016.0 - 0.0
25/06:30am 15.9 14.9 13.4 85 1.4 SW 11 20 6 11 1015.8 - 0.0
25/06:00am 15.9 14.5 13.4 85 1.4 SW 13 24 7 13 1015.4 1015.4 0.0
25/05:30am 15.6 14.9 13.1 85 1.4 SW 9 15 5 8 1014.9 - 0.0
25/05:00am 15.5 15.0 12.8 84 1.5 SW 7 13 4 7 1014.4 - 0.0
25/04:30am 16.0 15.6 12.9 82 1.7 W 7 11 4 6 1013.9 - 0.0
25/04:00am 16.4 15.7 13.1 81 1.8 W 9 15 5 8 1014.0 - 0.0
25/03:30am 16.8 16.2 12.3 75 2.5 WSW 7 13 4 7 1013.5 - 0.0
25/03:00am 17.8 16.1 12.5 71 2.9 WSW 13 24 7 13 1013.3 1013.3 0.0
25/02:30am 17.6 16.2 13.3 76 2.4 WSW 13 19 7 10 1013.2 - 0.0
25/02:00am 15.7 16.0 14.4 92 0.7 WNW 6 11 3 6 1012.9 - 0.0
25/01:30am 15.6 16.2 14.3 92 0.7 NW 4 7 2 4 1012.8 - 0.0
25/01:00am 15.9 17.4 14.6 92 0.7 CALM 0 4 0 2 1012.6 - 0.0
25/12:30am 16.1 16.5 14.8 92 0.7 SSW 6 7 3 4 1012.5 - 0.0
25/12:00am 17.3 18.0 16.0 92 0.8 NW 7 9 4 5 1012.3 1012.3 0.0
 
Date/Time
EDT
Temp
°C
App
Temp
°C
Dew
Point
Rel
Hum
%
Delta-T
°C
Wind Press
QNH
hPa
Press
MSL
hPa
Rain
since 9 am
mm
Dir
 
Spd
km/h
Gust
km/h
Spd
kts
Gust
kts
24/11:30pm 17.1 17.6 15.6 91 0.9 N 7 9 4 5 1012.0 - 0.0
24/11:00pm 17.4 18.0 15.7 90 1.0 N 7 9 4 5 1011.9 - 0.0
24/10:30pm 17.4 18.0 15.4 88 1.2 N 6 7 3 4 1011.9 - 0.0
24/10:00pm 17.8 18.5 15.6 87 1.3 NNW 6 7 3 4 1011.8 - 0.0
24/09:30pm 18.6 19.3 16.0 85 1.5 NNW 7 11 4 6 1011.8 - 0.0
24/09:00pm 19.3 20.1 16.3 83 1.8 N 7 11 4 6 1011.5 1011.5 0.0
24/08:30pm 19.9 20.0 16.5 81 2.0 N 11 17 6 9 1011.2 - 0.0
24/08:00pm 20.4 20.4 16.2 77 2.5 N 11 19 6 10 1011.1 - 0.0
24/07:30pm 21.1 21.0 15.9 72 3.1 NNW 11 17 6 9 1010.4 - 0.0
24/07:00pm 21.7 21.2 15.8 69 3.5 N 13 20 7 11 1010.5 - 0.0
24/06:30pm 22.3 21.5 15.2 64 4.2 N 13 19 7 10 1010.3 - 0.0
24/06:00pm 23.1 23.1 15.2 61 4.7 N 9 13 5 7 1010.3 1010.3 0.0
24/05:30pm 23.7 22.2 15.2 59 5.1 N 17 26 9 14 1009.7 - 0.0
24/05:00pm 24.0 21.5 15.2 58 5.3 NNE 22 30 12 16 1009.7 - 0.0
24/04:30pm 25.1 21.7 14.8 52 6.2 NNE 26 39 14 21 1009.8 - 0.0
24/04:00pm 25.6 24.1 16.2 56 5.8 NNE 19 28 10 15 1009.9 - 0.0
24/03:30pm 25.4 22.9 15.1 53 6.2 NNE 22 32 12 17 1010.1 - 0.0
24/03:00pm 26.3 24.0 15.7 52 6.5 NNE 22 32 12 17 1010.4 1010.4 0.0
24/02:30pm 25.5 23.0 15.2 53 6.2 NNE 22 32 12 17 1010.7 - 0.0
24/02:00pm 25.8 23.5 15.8 54 6.1 NNE 22 33 12 18 1011.2 - 0.0
24/01:30pm 24.9 22.2 15.5 56 5.7 NNE 24 37 13 20 1011.7 - 0.0
24/01:00pm 24.7 22.8 16.7 61 4.9 NNE 22 33 12 18 1012.0 - 0.0
24/12:30pm 23.1 20.8 15.7 63 4.5 NNE 22 32 12 17 1012.5 - 0.0
24/12:00pm 22.8 21.0 15.9 65 4.2 NNE 20 26 11 14 1013.2 1013.2 0.0
24/11:30am 22.5 22.0 16.8 70 3.5 NE 15 30 8 16 1013.7 - 0.0
24/11:00am 23.0 22.3 16.3 66 4.1 NE 15 24 8 13 1014.3 - 0.0
24/10:30am 21.7 20.8 15.8 69 3.5 NNE 15 24 8 13 1014.9 - 0.0
24/10:00am 21.3 21.0 16.5 74 2.9 NE 13 20 7 11 1015.5 - 0.0
24/09:30am 20.7 20.3 16.3 76 2.7 NE 13 19 7 10 1015.9 - 0.0
24/09:00am 20.3 19.6 16.5 79 2.3 NNE 15 20 8 11 1016.2 1016.2 1.8
24/08:30am 19.0 18.6 16.2 84 1.7 NNE 13 19 7 10 1016.6 - 1.8
24/08:00am 18.7 17.8 16.8 89 1.1 NNE 17 22 9 12 1016.7 - 1.8
24/07:30am 17.9 18.1 16.8 93 0.7 N 11 17 6 9 1016.8 - 1.8
24/07:00am 17.5 17.2 16.4 93 0.7 N 13 19 7 10 1016.8 - 1.8
24/06:30am 17.0 17.7 16.0 94 0.6 NNE 7 9 4 5 1016.7 - 1.8
24/06:00am 17.0 17.3 15.9 93 0.6 N 9 15 5 8 1016.6 1016.6 1.8
24/05:30am 16.7 16.5 15.6 93 0.6 NNE 11 13 6 7 1016.5 - 1.8
24/05:00am 16.6 16.7 15.5 93 0.6 NNE 9 13 5 7 1016.5 - 0.0
24/04:30am 16.6 16.7 15.5 93 0.6 NNE 9 11 5 6 1016.7 - 0.0
24/04:00am 16.0 16.8 14.7 92 0.7 ENE 4 7 2 4 1017.1 - 0.0
24/03:30am 16.3 17.5 15.0 92 0.8 NNW 2 7 1 4 1017.7 - 0.0
24/03:00am 16.4 16.9 15.1 92 0.8 NNW 6 7 3 4 1018.2 1018.2 0.0
24/02:30am 16.4 16.9 15.1 92 0.8 NNW 6 7 3 4 1018.3 - 0.0
24/02:00am 16.4 16.7 15.1 92 0.8 N 7 7 4 4 1018.6 - 0.0
24/01:30am 16.6 17.0 15.3 92 0.8 N 7 11 4 6 1018.9 - 0.0
24/01:00am 16.7 16.8 15.6 93 0.6 NNW 9 13 5 7 1019.4 - 0.0
24/12:30am 16.7 17.2 15.6 93 0.6 N 7 11 4 6 1019.7 - 0.0
24/12:00am 16.7 17.2 15.6 93 0.6 N 7 11 4 6 1019.8 1019.8 0.0
 
Date/Time
EDT
Temp
°C
App
Temp
°C
Dew
Point
Rel
Hum
%
Delta-T
°C
Wind Press
QNH
hPa
Press
MSL
hPa
Rain
since 9 am
mm
Dir
 
Spd
km/h
Gust
km/h
Spd
kts
Gust
kts
23/11:30pm 16.5 17.1 15.2 92 0.8 NNW 6 9 3 5 1019.9 - 0.0
23/11:00pm 16.5 18.2 15.2 92 0.8 CALM 0 0 0 0 1020.0 - 0.0
23/10:30pm 16.4 17.3 15.1 92 0.8 WNW 4 7 2 4 1020.2 - 0.0
23/10:00pm 16.1 17.3 14.8 92 0.7 W 2 7 1 4 1020.0 - 0.0
23/09:30pm 16.2 16.4 14.7 91 0.9 SSW 7 9 4 5 1019.7 - 0.0
23/09:00pm 16.7 17.2 15.1 90 0.9 NE 6 9 3 5 1019.4 1019.4 0.0
23/08:30pm 17.3 18.4 15.6 90 1.0 W 4 6 2 3 1020.1 - 0.0
23/08:00pm 17.2 17.3 15.5 90 1.0 WNW 9 11 5 6 1020.4 - 0.0
23/07:30pm 17.1 17.7 15.4 90 1.0 SW 6 7 3 4 1019.6 - 0.0
23/07:00pm 17.1 17.1 15.3 89 1.0 S 9 13 5 7 1019.1 - 0.0
23/06:30pm 17.3 17.8 15.5 89 1.1 SSW 7 13 4 7 1019.3 - 0.0
23/06:00pm 17.4 17.5 15.4 88 1.2 S 9 13 5 7 1019.2 1019.2 0.0
23/05:30pm 17.4 17.1 15.4 88 1.2 S 11 17 6 9 1019.3 - 0.0
23/05:00pm 17.6 17.3 15.4 87 1.3 S 11 19 6 10 1019.2 - 0.0
23/04:30pm 17.9 17.2 15.5 86 1.4 S 13 19 7 10 1019.1 - 0.0
23/04:00pm 18.1 16.7 15.5 85 1.5 SSW 17 26 9 14 1018.8 - 0.0
23/03:30pm 18.6 17.7 15.8 84 1.7 S 15 22 8 12 1018.5 - 0.0
23/03:00pm 18.6 16.9 15.7 83 1.7 SSW 19 30 10 16 1018.7 1018.7 0.0
23/02:30pm 18.7 16.1 15.9 84 1.7 S 24 33 13 18 1018.8 - 0.0
23/02:00pm 19.1 17.5 16.0 82 1.8 S 19 35 10 19 1018.7 - 0.0
23/01:30pm 19.2 17.3 15.7 80 2.1 S 20 33 11 18 1018.7 - 0.0
23/01:00pm 19.4 18.1 15.7 79 2.2 S 17 24 9 13 1018.5 - 0.0
23/12:30pm 19.9 18.0 15.3 75 2.7 SSW 19 26 10 14 1018.6 - 0.0
23/12:00pm 20.6 19.5 15.4 72 3.1 S 15 20 8 11 1018.8 1018.8 0.0
23/11:30am 20.9 20.1 15.0 69 3.5 SSW 13 20 7 11 1018.9 - 0.0
23/11:00am 20.3 19.2 14.2 68 3.5 S 13 17 7 9 1019.0 - 0.0
23/10:30am 20.3 18.8 14.2 68 3.5 SSW 15 22 8 12 1019.0 - 0.0
23/10:00am 21.9 21.1 15.0 65 4.1 SW 13 20 7 11 1018.9 - 0.0
23/09:30am 20.5 19.4 14.4 68 3.6 SSW 13 22 7 12 1018.4 - 0.0
23/09:00am 20.4 20.1 13.4 64 4.0 S 7 13 4 7 1017.4 1017.4 0.0
23/08:30am 20.0 19.2 13.0 64 4.0 S 9 17 5 9 1017.1 - 0.0
23/08:00am 19.9 20.0 13.8 68 3.5 ENE 6 7 3 4 1016.8 - 0.0
23/07:30am 18.9 19.9 14.2 74 2.7 NNW 2 6 1 3 1017.1 - 0.0
23/07:00am 17.0 16.5 12.7 76 2.4 SE 7 11 4 6 1017.1 - 0.0
23/06:30am 15.2 14.8 12.9 86 1.3 NW 7 17 4 9 1016.9 - 0.0
23/06:00am 15.4 15.0 12.5 83 1.6 WSW 6 9 3 5 1017.2 1017.2 0.0
23/05:30am 15.9 15.4 12.8 82 1.7 NW 7 13 4 7 1016.4 - 0.0
23/05:00am 15.9 15.4 12.6 81 1.8 WSW 7 13 4 7 1016.0 - 0.0
23/04:30am 15.8 13.8 12.7 82 1.7 NNW 15 20 8 11 1015.1 - 0.0
23/04:00am 16.3 15.8 12.7 79 2.0 NNW 7 15 4 8 1015.2 - 0.0
23/03:30am 15.9 15.4 12.6 81 1.8 N 7 13 4 7 1015.1 - 0.0
23/03:00am 16.4 16.0 13.1 81 1.8 WNW 7 13 4 7 1015.7 1015.7 0.0
23/02:30am 15.8 14.9 12.7 82 1.7 N 9 11 5 6 1015.5 - 0.0
23/02:00am 15.8 15.0 12.9 83 1.6 N 9 13 5 7 1015.8 - 0.0
23/01:30am 16.0 15.1 12.7 81 1.8 N 9 15 5 8 1016.3 - 0.0
23/01:00am 16.0 14.8 12.7 81 1.8 NNW 11 15 6 8 1016.9 - 0.0
23/12:30am 16.0 14.7 12.6 80 1.9 NNW 11 17 6 9 1017.0 - 0.0
23/12:00am 16.4 14.5 12.9 80 1.9 NW 15 20 8 11 1017.1 1017.1 0.0
 
Date/Time
EDT
Temp
°C
App
Temp
°C
Dew
Point
Rel
Hum
%
Delta-T
°C
Wind Press
QNH
hPa
Press
MSL
hPa
Rain
since 9 am
mm
Dir
 
Spd
km/h
Gust
km/h
Spd
kts
Gust
kts
22/11:30pm 16.4 14.4 12.8 79 2.0 NNW 15 22 8 12 1017.1 - 0.0
22/11:00pm 16.1 14.4 12.5 79 2.0 NNW 13 17 7 9 1017.2 - 0.0
22/10:30pm 16.0 14.3 12.6 80 1.9 NNW 13 19 7 10 1017.4 - 0.0
22/10:00pm 16.0 14.6 12.2 78 2.1 N 11 15 6 8 1017.6 - 0.0
22/09:30pm 16.5 15.1 12.1 75 2.4 N 11 15 6 8 1017.8 - 0.0
22/09:00pm 16.7 15.2 11.8 73 2.7 N 11 17 6 9 1018.0 1018.0 0.0
22/08:30pm 17.0 15.4 11.7 71 2.9 NNW 11 19 6 10 1017.8 - 0.0
22/08:00pm 17.9 16.0 11.9 68 3.3 N 13 19 7 10 1017.5 - 0.0
22/07:30pm 18.9 17.2 12.4 66 3.6 N 13 19 7 10 1017.3 - 0.0
22/07:00pm 19.9 18.7 12.9 64 4.0 N 11 17 6 9 1017.3 - 0.0
22/06:30pm 21.3 19.8 13.0 59 4.7 N 13 19 7 10 1017.0 - 0.0
22/06:00pm 22.6 20.8 13.4 56 5.3 N 15 20 8 11 1017.0 1017.0 0.0
22/05:30pm 21.3 21.0 14.5 65 4.0 NE 9 15 5 8 1017.1 - 0.0
22/05:00pm 20.4 19.1 13.8 66 3.8 NE 13 22 7 12 1017.2 - 0.0
22/04:30pm 20.0 19.5 13.7 67 3.6 NNE 9 15 5 8 1017.3 - 0.0
22/04:00pm 20.7 20.4 14.4 67 3.7 NNE 9 15 5 8 1017.4 - 0.0
22/03:30pm 20.4 19.4 13.4 64 4.0 NE 11 22 6 12 1017.8 - 0.0
22/03:00pm 24.2 22.5 12.5 48 6.7 NE 13 22 7 12 1017.9 1017.9 0.0
22/02:30pm 24.2 22.0 12.2 47 6.8 NNE 15 22 8 12 1018.4 - 0.0
22/02:00pm 23.9 21.6 11.9 47 6.8 N 15 20 8 11 1018.7 - 0.0
22/01:30pm 23.2 20.5 11.6 48 6.5 NNE 17 26 9 14 1018.9 - 0.0
22/01:00pm 22.7 20.0 11.7 49 6.2 N 17 24 9 13 1019.4 - 0.0
22/12:30pm 22.4 19.1 11.5 50 6.1 NNE 20 30 11 16 1019.6 - 0.0
22/12:00pm 21.9 18.4 11.0 50 6.0 N 20 30 11 16 1020.3 1020.3 0.0
22/11:30am 21.0 17.1 10.8 52 5.6 N 22 32 12 17 1021.0 - 0.0
22/11:00am 20.4 16.7 10.2 52 5.5 N 20 30 11 16 1021.4 - 0.0

Other Formats:

Comma delimited format used in spreadsheet applications
http://www.bom.gov.au/fwo/IDV60801/IDV60801.94935.axf

JavaScript Object Notation format (JSON) in row-major order
http://www.bom.gov.au/fwo/IDV60801/IDV60801.94935.json